ROMMA est une association bénévole à but non lucratif. Votre soutien est indispensable : ADHERER à ROMMA ou FAIRE un DON

Saint-Martin-d'Hères - (38, Isère)

Vallée du Grésivaudan (220 m)   Longitude: 05° 45' 05" E   Latitude: 45° 10' 02" N Station partenaire n°4
 

Détail journalier du     <<     >>

Température Precipitation Humidité Pression Vent Dir Rafale Dir. rafale Ensol.
Heure (°C) (mm) (%) (hPa) (km/h) (km/h) (min)
01:00 15.1083101800---0
02:00 14.4085101800---0
03:00 13.9087101800---0
04:00 12.7090101800---0
05:00 12.0091101700---0
06:00 11.5093101800---0
07:00 11.1093101800---0
08:00 11.1094101800---0
09:00 12.1094101800---0
10:00 13.2090101800---0
11:00 14.6084101802SSE0
12:00 18.6067101700---50
13:00 19.4062101608NO60
14:00 21.305310151NO10NNO60
15:00 22.005010151NO11NNO30
16:00 22.9050101406NO0
17:00 23.7044101408NO50
18:00 20.90581014010NO10
19:00 17.8071101400---0
20:00 16.6074101500---0
21:00 15.7077101502SSO0
22:00 14.8080101500---0
23:00 14.4083101600---0
minuit 14.3084101600---0

Graphique du 17-10-2018

 

Serveur OMMA